Sparta, IL

6:27 PM CST on December 12, 2019 (GMT -0600)
Sparta Community-Hunter

Weather History for KSAR - August, 2019

Change the Weather History Date:

Monday, August 12, 2019

  Actual Average (WUND) Record (WUND)
Temperature  
Mean Temperature 84 °F -  
Max Temperature 92 °F - - (-1)
Min Temperature 75 °F - - (-1)
Cooling Degree Days 18    
Growing Degree Days 34 (Base 50)    
Moisture  
Dew Point 78 °F    
Average Humidity 85    
Maximum Humidity 100    
Minimum Humidity 64    
Precipitation  
Precipitation 0.03 in - - ()
Sea Level Pressure  
Sea Level Pressure 29.89 in    
Wind  
Wind Speed 7 mph (South)    
Max Wind Speed 16 mph    
Max Gust Speed 22 mph    
Visibility 10 miles    
Events Rain , Thunderstorm    
Averages and records for this station are not official NWS values.
T = Trace of Precipitation, MM = Missing Value Source: NWS Daily Summary

Daily Weather History Graph

Daily Weather History Graph

Search for Another Location

Airport or City:

Astronomy

Aug. 12, 2019 Rise Set
Actual Time 6:10 AM CDT 7:56 PM CDT
Civil Twilight 5:42 AM CDT 8:24 PM CDT
Nautical Twilight 5:08 AM CDT 8:58 PM CDT
Astronomical Twilight 4:31 AM CDT 9:35 PM CDT
Moon 6:24 PM CDT (8/12) 3:22 AM CDT (8/12)
Length of Visible Light 14h 42m
Length of Day
13h 45m
Waxing Gibbous, 93% of the Moon is Illuminated
Aug 12
Waxing Gibbous
Aug 15
Full
Aug 23
Last Quarter
Aug 30
New
Sep 5
First Quarter

Hourly Weather History & Observations

Time (CDT) Temp. Heat Index Dew Point Humidity Pressure Visibility Wind Dir Wind Speed Gust Speed Precip Events Conditions
12:15 AM 77.2 °F - 76.3 °F 97% 29.96 in 10.0 mi SSE 4.6 mph - N/A   Light Drizzle
12:35 AM 77.0 °F - 76.5 °F 98% 29.96 in 10.0 mi SSE 4.6 mph - N/A   Scattered Clouds
12:55 AM 76.8 °F - 76.3 °F 98% 29.96 in 10.0 mi SSE 3.5 mph - N/A   Mostly Cloudy
1:15 AM 76.6 °F - 76.3 °F 99% 29.96 in 10.0 mi SE 3.5 mph - N/A   Mostly Cloudy
1:35 AM 76.5 °F - 76.1 °F 99% 29.96 in 10.0 mi SE 3.5 mph - N/A   Overcast
1:55 AM 76.3 °F - 76.1 °F 99% 29.96 in 10.0 mi SSE 4.6 mph - N/A   Overcast
2:15 AM 76.1 °F - 76.1 °F 100% 29.96 in 10.0 mi SSE 4.6 mph - N/A   Overcast
2:35 AM 75.9 °F - 75.7 °F 99% 29.95 in 10.0 mi SSE 5.8 mph - N/A   Mostly Cloudy
2:55 AM 76.1 °F - 75.7 °F 99% 29.94 in 10.0 mi SSE 6.9 mph - N/A   Mostly Cloudy
3:15 AM 76.1 °F - 75.6 °F 98% 29.93 in 10.0 mi SSE 6.9 mph - N/A   Mostly Cloudy
3:35 AM 76.1 °F - 75.4 °F 98% 29.93 in 10.0 mi SSE 5.8 mph - N/A   Scattered Clouds
3:55 AM 76.1 °F - 75.4 °F 98% 29.93 in 10.0 mi SSE 5.8 mph - N/A   Scattered Clouds
4:15 AM 75.6 °F - 75.4 °F 99% 29.91 in 10.0 mi SSE 6.9 mph - N/A   Scattered Clouds
4:35 AM 75.6 °F - 75.2 °F 99% 29.91 in 10.0 mi SSE 6.9 mph - N/A   Scattered Clouds
4:55 AM 75.7 °F - 75.2 °F 98% 29.91 in 10.0 mi SSE 6.9 mph - N/A Thunderstorm Mostly Cloudy
5:15 AM 75.9 °F - 75.2 °F 98% 29.91 in 10.0 mi SSE 5.8 mph - N/A Thunderstorm Mostly Cloudy
5:35 AM 76.1 °F - 75.2 °F 97% 29.91 in 10.0 mi South 6.9 mph - N/A Thunderstorm Overcast
5:55 AM 76.3 °F - 74.8 °F 95% 29.91 in 10.0 mi South 8.1 mph - N/A Thunderstorm Mostly Cloudy
6:35 AM 76.5 °F - 74.7 °F 94% 29.92 in 10.0 mi South 9.2 mph - N/A   Scattered Clouds
6:55 AM 76.8 °F - 75.0 °F 94% 29.92 in 10.0 mi South 9.2 mph - N/A Thunderstorm Mostly Cloudy
7:15 AM 77.0 °F - 75.2 °F 94% 29.93 in 10.0 mi South 9.2 mph - N/A   Mostly Cloudy
7:35 AM 77.0 °F - 75.2 °F 94% 29.93 in 10.0 mi South 6.9 mph - N/A   Scattered Clouds
7:55 AM 77.4 °F - 75.6 °F 94% 29.94 in 10.0 mi South 6.9 mph - N/A Thunderstorm Scattered Clouds
8:15 AM 77.9 °F - 75.7 °F 93% 29.94 in 10.0 mi SSW 5.8 mph - N/A Thunderstorm Mostly Cloudy
8:35 AM 77.9 °F - 75.4 °F 92% 29.94 in 10.0 mi SSW 10.4 mph - N/A   Overcast
8:55 AM 78.1 °F - 75.6 °F 92% 29.95 in 10.0 mi SSW 9.2 mph - N/A   Overcast
9:15 AM 78.3 °F - 76.1 °F 93% 29.96 in 10.0 mi SSW 5.8 mph - N/A   Overcast
9:35 AM 78.8 °F - 76.5 °F 92% 29.97 in 10.0 mi SSW 5.8 mph - N/A   Overcast
9:55 AM 79.7 °F - 77.0 °F 91% 29.96 in 10.0 mi SW 6.9 mph - N/A   Overcast
10:15 AM 78.3 °F - 76.3 °F 94% 29.97 in 10.0 mi Calm Calm - N/A   Overcast
10:35 AM 79.7 °F - 77.2 °F 92% 29.98 in 10.0 mi North 6.9 mph - N/A   Overcast
10:55 AM 78.8 °F - 77.2 °F 95% 29.97 in 5.0 mi NNE 3.5 mph - 0.03 in Rain Light Rain
11:15 AM 79.7 °F - 77.9 °F 94% 29.96 in 10.0 mi SE 4.6 mph - N/A Rain Light Rain
11:35 AM 79.9 °F - 78.4 °F 95% 29.94 in 10.0 mi SE 6.9 mph - N/A   Mostly Cloudy
11:55 AM 81.7 °F 90.8 °F 79.0 °F 91% 29.93 in 10.0 mi SE 5.8 mph - N/A   Scattered Clouds
12:15 PM 83.5 °F 96.3 °F 80.2 °F 90% 29.92 in 10.0 mi ESE 5.8 mph - N/A   Clear
12:35 PM 84.6 °F 97.7 °F 79.7 °F 85% 29.91 in 10.0 mi SE 8.1 mph - N/A   Clear
12:55 PM 84.9 °F 97.9 °F 79.3 °F 83% 29.90 in 10.0 mi SE 6.9 mph - N/A   Clear
1:15 PM 86.2 °F 100.9 °F 79.7 °F 81% 29.89 in 10.0 mi SSE 8.1 mph - N/A   Clear
1:35 PM 87.4 °F 102.6 °F 79.5 °F 77% 29.88 in 10.0 mi South 8.1 mph - N/A   Scattered Clouds
1:55 PM 88.3 °F 104.2 °F 79.5 °F 75% 29.88 in 10.0 mi SSE 10.4 mph 16.1 mph N/A   Scattered Clouds
2:15 PM 88.9 °F 105.8 °F 79.9 °F 75% 29.87 in 10.0 mi South 10.4 mph 16.1 mph N/A   Scattered Clouds
2:35 PM 90.7 °F 107.3 °F 79.3 °F 69% 29.85 in 10.0 mi SSW 13.8 mph 17.3 mph N/A   Scattered Clouds
2:55 PM 91.0 °F 109.1 °F 79.9 °F 70% 29.84 in 10.0 mi South 12.7 mph 18.4 mph N/A   Scattered Clouds
3:15 PM 91.6 °F 108.5 °F 79.3 °F 67% 29.84 in 10.0 mi South 16.1 mph 20.7 mph N/A   Scattered Clouds
3:35 PM 91.8 °F 108.3 °F 79.0 °F 66% 29.84 in 10.0 mi SSW 16.1 mph 20.7 mph N/A   Scattered Clouds
3:55 PM 91.9 °F 108.1 °F 78.4 °F 65% 29.83 in 10.0 mi SSW 11.5 mph 21.9 mph N/A   Scattered Clouds
4:15 PM 92.1 °F 107.9 °F 78.4 °F 64% 29.83 in 10.0 mi South 12.7 mph 21.9 mph N/A   Scattered Clouds
4:35 PM 92.3 °F 109.1 °F 79.0 °F 65% 29.83 in 10.0 mi SSW 11.5 mph - N/A   Clear
4:55 PM 91.8 °F 106.8 °F 77.9 °F 64% 29.83 in 10.0 mi SSW 9.2 mph 18.4 mph N/A   Clear
5:15 PM 92.3 °F 108.4 °F 78.4 °F 64% 29.83 in 10.0 mi SW 8.1 mph - N/A   Scattered Clouds
5:35 PM 91.8 °F 107.6 °F 78.3 °F 65% 29.82 in 10.0 mi SSW 11.5 mph - N/A   Clear
5:55 PM 91.4 °F 108.0 °F 79.0 °F 67% 29.82 in 10.0 mi SSW 6.9 mph 16.1 mph N/A   Clear
6:15 PM 91.4 °F 108.0 °F 79.0 °F 67% 29.82 in 10.0 mi South 10.4 mph - N/A   Clear
6:35 PM 91.2 °F 107.4 °F 78.8 °F 67% 29.82 in 10.0 mi SSW 9.2 mph - N/A   Clear
6:55 PM 90.5 °F 106.7 °F 79.0 °F 69% 29.82 in 10.0 mi South 8.1 mph - N/A   Clear
7:20 PM 89.6 °F 105.4 °F 79.2 °F 71% 29.82 in 10.0 mi SSW 6.9 mph - N/A   Clear
7:35 PM 88.7 °F 105.3 °F 79.7 °F 75% 29.81 in 10.0 mi South 5.8 mph - N/A   Clear
7:55 PM 88.0 °F 103.1 °F 79.3 °F 75% 29.81 in 10.0 mi South 5.8 mph - N/A   Clear
8:15 PM 87.3 °F 102.0 °F 79.2 °F 77% 29.81 in 10.0 mi South 8.1 mph - N/A   Clear
8:35 PM 86.9 °F 100.9 °F 79.0 °F 77% 29.81 in 10.0 mi South 6.9 mph - N/A   Clear
8:55 PM 86.2 °F 99.8 °F 79.0 °F 79% 29.81 in 10.0 mi South 8.1 mph - N/A   Clear
9:15 PM 85.3 °F 98.1 °F 78.8 °F 81% 29.80 in 10.0 mi South 8.1 mph - N/A   Clear
9:35 PM 84.7 °F 96.9 °F 78.8 °F 82% 29.80 in 10.0 mi South 8.1 mph - N/A   Clear
9:55 PM 84.2 °F 95.7 °F 78.4 °F 83% 29.79 in 10.0 mi South 9.2 mph - N/A   Clear
10:20 PM 83.7 °F 94.9 °F 78.8 °F 85% 29.80 in 10.0 mi SSW 9.2 mph - N/A   Clear
10:35 PM 83.5 °F 94.7 °F 79.0 °F 86% 29.80 in 10.0 mi SSW 9.2 mph - N/A   Clear
10:55 PM 83.3 °F 94.5 °F 79.0 °F 87% 29.81 in 10.0 mi SSW 8.1 mph - N/A   Clear
11:15 PM 83.3 °F 94.2 °F 78.8 °F 86% 29.81 in 10.0 mi SSW 8.1 mph - N/A   Clear
11:35 PM 83.3 °F 94.5 °F 79.0 °F 87% 29.81 in 10.0 mi SSW 10.4 mph 16.1 mph N/A   Clear
11:55 PM 83.1 °F 94.0 °F 78.8 °F 87% 29.81 in 10.0 mi SSW 9.2 mph - N/A   Clear